軌道要素
Epoch 2022 Jan. 21.0 TT = JDT 2459600.5
T 2021 Oct. 31.88636 TT Rudenko
q 2.5521429 (2000.0) P Q
n 0.06273361 Peri. 220.72811 +0.79231588 -0.60887680
a 6.2729119 Node 176.11524 +0.59116671 +0.78188078
e 0.5931486 Incl. 34.92698 -0.15085578 -0.13390851
P 15.7
From 104 observations 2021 Aug. 31-Nov. 9, mean residual 0".3.
|